Regional Weather Roundup
Issued by NWS

Home | Current Version | Previous Version | Text Only | Print | Product List | Glossary Off
Versions: 1 2 3 4 5 6 7 8 9 10 11 12 13 14 15 16 17 18 19 20 21 22 23 24 25 26 27 28 29 30 31 32 33 34 35 36 37 38 39 40 41 42 43 44 45 46 47 48 49 50

000
ASUS43 KMKX 231000
RWRWI

WISCONSIN REGIONAL WEATHER ROUNDUP
NATIONAL WEATHER SERVICE MILWAUKEE/SULLIVAN WI
500 AM CDT SAT SEP 23 2017

NOTE: "FAIR" INDICATES FEW OR NO CLOUDS BELOW 12,000 FEET WITH NO
SIGNIFICANT WEATHER AND/OR OBSTRUCTIONS TO VISIBILITY.

WIZ001-002-006>008-014>016-023>028-231100-
NORTHWEST WISCONSIN

CITY           SKY/WX    TMP DP  RH WIND       PRES   REMARKS
SUPERIOR ARPT  MOCLDY    62  62  99 CALM      29.86R
ASHLAND        CLOUDY    76  67  73 SW16G25   29.89R
HAYWARD        MOCLDY    73  66  78 S7        29.94R
SIREN          CLOUDY    74  66  76 S3        29.91R
CUMBERLAND     CLOUDY    70  64  83 S6        29.94R
RICE LAKE      CLOUDY    71  65  82 SE3       29.95R
CHETEK           N/A     69  66  90 CALM      29.94R
LADYSMITH      MOCLDY    72  66  83 S7        29.98R
EAU CLAIRE     NOT AVBL
MENOMONIE      CLEAR     72  65  79 SE5       29.93S
NEW RICHMOND   MOCLDY    74  65  73 S8        29.92R
OSCEOLA        CLOUDY    75  66  74 S6        29.93R
$$

WIZ003>005-009-010-017-018-231100-
NORTH CENTRAL WISCONSIN

CITY           SKY/WX    TMP DP  RH WIND       PRES   REMARKS
MANITOWISH WTR NOT AVBL
ARBOR VITAE    CLOUDY    69  66  90 S5        29.99S
WOODRUFF       CLOUDY    69  66  90 S5        29.99S
RHINELANDER    CLEAR     69  66  90 SW5       30.02R
EAGLE RIVER    PTCLDY    63  63 100 CALM      30.01R FOG
LAND O LAKES   CLEAR     65  65  97 SW3       30.01R
PHILLIPS       PTCLDY    70  67  90 S5        29.97R
TOMAHAWK       PTCLDY    63  62  95 CALM      30.01S
MEDFORD        PTCLDY    64  63  96 S3        30.01R
MERRILL        CLOUDY    70  66  87 S3        30.01R
$$

WIZ029-030-035-036-043>047-231100-
CENTRAL WISCONSIN

CITY           SKY/WX    TMP DP  RH WIND       PRES   REMARKS
WAUSAU         CLOUDY    71  64  78 S3        30.00R
MOSINEE        CLOUDY    66  63  88 S5        30.02R
MARSHFIELD     PTCLDY    68  62  81 S5        30.01R
STEVENS POINT  PTCLDY    70  64  81 S7        30.01S
WAUPACA        CLEAR     66  65  96 CALM      30.02R
WAUTOMA        CLEAR     62  61  96 CALM      30.03R
WISC RAPIDS    MOCLDY    72  64  76 S7        30.01R
CAMP DOUGLAS   NOT AVBL
$$

WIZ011>013-019>022-031-037>040-048>050-231100-
NORTHEAST WISCONSIN

CITY           SKY/WX    TMP DP  RH WIND       PRES   REMARKS
ANTIGO         CLEAR     64  63  96 CALM      30.04R
SHAWANO        CLEAR     69  65  89 CALM      30.00R
OCONTO         CLEAR     63  62  97 CALM      30.00R
STURGEON BAY   CLEAR     72  64  76 S7        30.02R
GREEN BAY      CLEAR     67  65  93 S3        30.01R
MANITOWOC      CLEAR     73  65  75 SW3       30.03R
APPLETON       CLEAR     70  59  68 S3        30.01R
CLINTONVILLE   CLEAR     66  63  88 S5        30.01R
OSHKOSH        CLEAR     70  64  81 S8        30.02R
$$

WIZ032>034-041-042-053>061-231100-
SOUTHWEST WISCONSIN

CITY           SKY/WX    TMP DP  RH WIND       PRES   REMARKS
LA CROSSE      CLEAR     76  66  71 S7        29.96R
SPARTA         CLEAR     74  64  70 S6        29.98R
VIROQUA        CLEAR     71  65  83 S5        30.01R
BOSCOBEL       CLEAR     67  64  90 CALM      30.00R
PRAIRIE DU CHI CLEAR     71  62  73 CALM      29.99R
PLATTEVILLE    CLEAR     69  66  91 S5        30.03R
$$

WIZ056-057-062-063-064-067-068-231100-
SOUTH CENTRAL WISCONSIN

CITY           SKY/WX    TMP DP  RH WIND       PRES   REMARKS
REEDSBURG      PTCLDY    70  64  83 CALM      30.01R
BARABOO/DELLS  PTCLDY    69  62  77 S3        30.02R
LONE ROCK      NOT AVBL
MINERAL POINT  PTCLDY    70  66  88 CALM      30.03R
MADISON        CLEAR     67  63  87 CALM      30.03R
MIDDLETON      CLEAR     72  64  73 CALM      30.03R
WATERTOWN      CLEAR     65  65 100 SE3       30.03S
MONROE         CLEAR     68  63  83 S9        30.03S
JANESVILLE     CLEAR     68  64  88 CALM      30.03R
$$

WIZ051-052-058>065-066-070>072-231100-
SOUTHEAST WISCONSIN

CITY           SKY/WX    TMP DP  RH WIND       PRES   REMARKS
MILWAUKEE      CLEAR     74  66  76 SW6       30.04R
WAUKESHA       CLEAR     70  63  78 S3        30.05S
MILWAUKEE/TIMM CLEAR     68  63  83 CALM      30.05R
RACINE         CLEAR     75  66  73 SW7       30.05R
BURLINGTON     CLEAR     63  63 100 CALM      30.04S
KENOSHA        CLEAR     67  65  93 W6        30.04S
FOND DU LAC    CLEAR     72  63  73 S6        30.03R
SHEBOYGAN      CLEAR     65  65 100 S5        30.03R
WEST BEND        N/A     64  63  94 CALM      30.04R
JUNEAU         CLEAR     68  63  84 CALM      30.04S
$$

LSZ147-162-231100-
LAKE SUPERIOR

STATION/POSITION TIME  TEMP    WIND        PRES    WAVE
                       AIR SEA DIR/SP/G            HT/PER
                 (UTC) (F)     (DEG/KT/KT) (MB)    (FT/S)
W MID LAKE BUOY  0850   63 54  230/ 14/ 14 1009.8R   2/ 5
DEVILS ISLAND    0900   70     290/  4/  5 1009.9R
SAXON HARBOR     0940   80     200/ 14/ 22 1010.8R
$$

LMZ867-665-643>646-231100-
LAKE MICHIGAN

STATION/POSITION TIME  TEMP    WIND        PRES    WAVE
                       AIR SEA DIR/SP/G            HT/PER
                 (UTC) (F)     (DEG/KT/KT) (MB)    (FT/S)
S GREEN BAY BUOY 0900   70 67  210/  6/  8 1015.2R
N MID LAKE BUOY  0850   69 66  190/ 14/ 14 1015.8R   2/ 4
NORTHPORT PIER   0940   67     160/  2/  5 1015.6R
KEWAUNEE LAKESHO 0930   66     200/  6/  6 1015.4R
SHEBOYGAN LAKESH 0900   75     230/  7/  8 1015.8R
PORT WASHINGTON  0940   72     260/  3/  4 1017.6R
ATWATER BUOY     0839   72 65  210/  4/  6 1016.9R
MILWAUKEE LAKESH 0930   78     230/  8/  8   N/A
S MID LAKE BUOY  0850   73 70  180/  8/ 10 1016.7R   0
KENOSHA   LAKESH 0900   74     220/  3/  5 1016.3
$$

TC  - TEMPERATURE IN CELSIUS
VSB - VISIBILITY IN STATUTE MILES
WCI - WIND CHILL INDEX
HX  - HEAT INDEX





USA.gov is the U.S. government's official web portal to all federal, state and local government web resources and services.